Time,TemperatureF,DewpointF,PressureIn,WindDirection,WindDirectionDegrees,WindSpeedMPH,WindSpeedGustMPH,Humidity,HourlyPrecipIn,Conditions,Clouds,dailyrainin,SolarRadiationWatts/m^2,SoftwareType,DateUTC
2013-04-25 00:02:00,64.1,56.4,29.98,WSW,240,0.0,-999.0,76,0.00,,,0.00,0,Wunderground v.1.15,2013-04-25 04:02:00,
2013-04-25 00:03:00,64.0,56.3,29.98,WSW,252,1.0,-999.0,76,0.00,,,0.00,0,Wunderground v.1.15,2013-04-25 04:03:00,
2013-04-25 00:04:00,64.1,56.4,29.98,WSW,242,1.0,-999.0,76,0.00,,,0.00,0,Wunderground v.1.15,2013-04-25 04:04:00,
2013-04-25 00:05:00,64.1,56.4,29.98,WSW,241,1.0,-999.0,76,0.00,,,0.00,0,Wunderground v.1.15,2013-04-25 04:05:00,
2013-04-25 00:10:00,64.1,56.4,29.98,West,279,1.0,-999.0,76,0.00,,,0.00,0,Wunderground v.1.15,2013-04-25 04:10:00,
2013-04-25 00:12:00,64.2,56.5,29.98,West,269,1.0,-999.0,76,0.00,,,0.00,0,Wunderground v.1.15,2013-04-25 04:12:00,
2013-04-25 00:17:00,64.3,56.6,29.98,NW,321,2.0,-999.0,76,0.00,,,0.00,0,Wunderground v.1.15,2013-04-25 04:17:00,
2013-04-25 00:23:00,64.4,56.7,29.99,West,272,2.0,-999.0,76,0.00,,,0.00,0,Wunderground v.1.15,2013-04-25 04:23:00,
2013-04-25 00:28:00,64.4,56.7,29.99,WNW,284,1.0,-999.0,76,0.00,,,0.00,0,Wunderground v.1.15,2013-04-25 04:28:00,
2013-04-25 00:33:00,64.4,56.7,29.99,WSW,238,1.0,-999.0,76,0.00,,,0.00,0,Wunderground v.1.15,2013-04-25 04:33:00,
2013-04-25 00:38:00,64.4,57.0,29.99,WNW,284,1.0,-999.0,77,0.00,,,0.00,0,Wunderground v.1.15,2013-04-25 04:38:00,
2013-04-25 00:44:00,64.4,57.0,29.99,SW,225,1.0,-999.0,77,0.00,,,0.00,0,Wunderground v.1.15,2013-04-25 04:44:00,
2013-04-25 00:49:00,64.5,57.1,30.00,WNW,294,1.0,-999.0,77,0.00,,,0.00,0,Wunderground v.1.15,2013-04-25 04:49:00,
2013-04-25 00:54:00,64.6,57.2,30.00,WNW,288,1.0,-999.0,77,0.00,,,0.00,0,Wunderground v.1.15,2013-04-25 04:54:00,
2013-04-25 01:00:00,64.7,57.3,30.00,WNW,288,1.0,-999.0,77,0.00,,,0.00,0,Wunderground v.1.15,2013-04-25 05:00:00,
2013-04-25 01:05:00,64.7,57.3,30.01,NW,304,1.0,-999.0,77,0.00,,,0.00,0,Wunderground v.1.15,2013-04-25 05:05:00,
2013-04-25 01:10:00,64.6,56.9,30.01,NNW,345,1.0,-999.0,76,0.00,,,0.00,0,Wunderground v.1.15,2013-04-25 05:10:00,
2013-04-25 01:16:00,64.5,56.8,30.01,NNW,338,1.0,-999.0,76,0.00,,,0.00,0,Wunderground v.1.15,2013-04-25 05:16:00,
2013-04-25 01:21:00,64.2,56.1,30.01,NW,322,1.0,-999.0,75,0.00,,,0.00,0,Wunderground v.1.15,2013-04-25 05:21:00,
2013-04-25 01:26:00,63.9,55.8,30.02,NNE,17,2.0,-999.0,75,0.00,,,0.00,0,Wunderground v.1.15,2013-04-25 05:26:00,
2013-04-25 01:32:00,63.4,54.6,30.02,NW,309,3.0,-999.0,73,0.00,,,0.00,0,Wunderground v.1.15,2013-04-25 05:32:00,
2013-04-25 01:37:00,63.2,54.4,30.02,North,355,2.0,-999.0,73,0.00,,,0.00,0,Wunderground v.1.15,2013-04-25 05:37:00,
2013-04-25 01:42:00,62.9,54.1,30.02,WNW,286,1.0,-999.0,73,0.00,,,0.00,0,Wunderground v.1.15,2013-04-25 05:42:00,
2013-04-25 01:48:00,62.6,53.4,30.02,North,10,2.0,-999.0,72,0.00,,,0.00,0,Wunderground v.1.15,2013-04-25 05:48:00,
2013-04-25 01:53:00,62.3,52.8,30.02,NNE,23,2.0,-999.0,71,0.00,,,0.00,0,Wunderground v.1.15,2013-04-25 05:53:00,
2013-04-25 01:58:00,62.1,52.2,30.02,NW,318,2.0,-999.0,70,0.00,,,0.00,0,Wunderground v.1.15,2013-04-25 05:58:00,
2013-04-25 02:03:00,61.9,52.0,30.02,WNW,284,2.0,-999.0,70,0.00,,,0.00,0,Wunderground v.1.15,2013-04-25 06:03:00,
2013-04-25 02:09:00,61.6,51.3,30.03,NNW,338,1.0,-999.0,69,0.00,,,0.00,0,Wunderground v.1.15,2013-04-25 06:09:00,
2013-04-25 02:14:00,61.4,50.7,30.03,WNW,290,1.0,-999.0,68,0.00,,,0.00,0,Wunderground v.1.15,2013-04-25 06:14:00,
2013-04-25 02:19:00,61.3,50.6,30.03,North,5,2.0,-999.0,68,0.00,,,0.00,0,Wunderground v.1.15,2013-04-25 06:19:00,
2013-04-25 02:25:00,61.0,50.4,30.04,NNW,331,1.0,-999.0,68,0.00,,,0.00,0,Wunderground v.1.15,2013-04-25 06:25:00,
2013-04-25 02:30:00,60.9,50.3,30.03,West,273,1.0,-999.0,68,0.00,,,0.00,0,Wunderground v.1.15,2013-04-25 06:30:00,
2013-04-25 02:35:00,60.7,50.1,30.03,NNW,328,1.0,-999.0,68,0.00,,,0.00,0,Wunderground v.1.15,2013-04-25 06:35:00,
2013-04-25 02:41:00,60.5,49.9,30.03,NW,319,0.0,-999.0,68,0.00,,,0.00,0,Wunderground v.1.15,2013-04-25 06:41:00,
2013-04-25 02:47:00,60.2,50.0,30.03,NNE,32,0.0,-999.0,69,0.00,,,0.00,0,Wunderground v.1.15,2013-04-25 06:47:00,
2013-04-25 02:52:00,60.0,50.6,30.03,ENE,62,0.0,-999.0,71,0.00,,,0.00,0,Wunderground v.1.15,2013-04-25 06:52:00,
2013-04-25 02:57:00,59.6,50.6,30.03,ENE,62,0.0,-999.0,72,0.00,,,0.00,0,Wunderground v.1.15,2013-04-25 06:57:00,
2013-04-25 03:03:00,59.0,50.0,30.03,North,5,0.0,-999.0,72,0.00,,,0.00,0,Wunderground v.1.15,2013-04-25 07:03:00,
2013-04-25 03:08:00,58.7,49.7,30.04,NNE,15,0.0,-999.0,72,0.00,,,0.00,0,Wunderground v.1.15,2013-04-25 07:08:00,
2013-04-25 03:13:00,58.2,49.2,30.05,NNE,15,0.0,-999.0,72,0.00,,,0.00,0,Wunderground v.1.15,2013-04-25 07:13:00,
2013-04-25 03:19:00,57.8,48.8,30.05,NNE,15,0.0,-999.0,72,0.00,,,0.00,0,Wunderground v.1.15,2013-04-25 07:19:00,
2013-04-25 03:24:00,57.6,48.6,30.05,NW,315,0.0,-999.0,72,0.00,,,0.00,0,Wunderground v.1.15,2013-04-25 07:24:00,
2013-04-25 03:29:00,57.2,47.9,30.06,NNW,341,0.0,-999.0,71,0.00,,,0.00,0,Wunderground v.1.15,2013-04-25 07:29:00,
2013-04-25 03:36:00,56.9,47.6,30.06,North,360,0.0,-999.0,71,0.00,,,0.00,0,Wunderground v.1.15,2013-04-25 07:36:00,
2013-04-25 03:41:00,56.6,47.3,30.06,East,80,0.0,-999.0,71,0.00,,,0.00,0,Wunderground v.1.15,2013-04-25 07:41:00,
2013-04-25 03:46:00,56.3,47.0,30.06,East,84,0.0,-999.0,71,0.00,,,0.00,0,Wunderground v.1.15,2013-04-25 07:46:00,
2013-04-25 03:52:00,55.9,46.6,30.06,ENE,70,0.0,-999.0,71,0.00,,,0.00,0,Wunderground v.1.15,2013-04-25 07:52:00,
2013-04-25 03:57:00,55.7,46.4,30.07,ENE,62,0.0,-999.0,71,0.00,,,0.00,0,Wunderground v.1.15,2013-04-25 07:57:00,
2013-04-25 04:02:00,55.5,46.2,30.07,ENE,62,0.0,-999.0,71,0.00,,,0.00,0,Wunderground v.1.15,2013-04-25 08:02:00,
2013-04-25 04:08:00,55.3,46.4,30.08,ENE,61,0.0,-999.0,72,0.00,,,0.00,0,Wunderground v.1.15,2013-04-25 08:08:00,
2013-04-25 04:13:00,55.0,46.1,30.08,ENE,63,0.0,-999.0,72,0.00,,,0.00,0,Wunderground v.1.15,2013-04-25 08:13:00,
2013-04-25 04:18:00,54.9,46.0,30.08,NNW,336,0.0,-999.0,72,0.00,,,0.00,0,Wunderground v.1.15,2013-04-25 08:18:00,
2013-04-25 04:23:00,54.8,45.2,30.09,NNE,14,1.0,-999.0,70,0.00,,,0.00,0,Wunderground v.1.15,2013-04-25 08:23:00,
2013-04-25 04:28:00,54.6,44.2,30.09,NW,321,2.0,-999.0,68,0.00,,,0.00,0,Wunderground v.1.15,2013-04-25 08:28:00,
2013-04-25 04:34:00,54.6,43.9,30.09,NW,315,2.0,-999.0,67,0.00,,,0.00,0,Wunderground v.1.15,2013-04-25 08:34:00,
2013-04-25 04:39:00,54.5,43.4,30.10,NE,44,1.0,-999.0,66,0.00,,,0.00,0,Wunderground v.1.15,2013-04-25 08:39:00,
2013-04-25 04:44:00,54.4,42.9,30.10,NNW,338,2.0,-999.0,65,0.00,,,0.00,0,Wunderground v.1.15,2013-04-25 08:44:00,
2013-04-25 04:49:00,54.2,42.7,30.10,NW,313,1.0,-999.0,65,0.00,,,0.00,0,Wunderground v.1.15,2013-04-25 08:49:00,
2013-04-25 04:55:00,54.2,42.7,30.11,NW,319,0.0,-999.0,65,0.00,,,0.00,0,Wunderground v.1.15,2013-04-25 08:55:00,
2013-04-25 05:00:00,54.1,43.0,30.11,NW,319,0.0,-999.0,66,0.00,,,0.00,0,Wunderground v.1.15,2013-04-25 09:00:00,
2013-04-25 05:06:00,54.0,43.3,30.11,NW,326,0.0,-999.0,67,0.00,,,0.00,0,Wunderground v.1.15,2013-04-25 09:06:00,
2013-04-25 05:11:00,53.9,44.0,30.12,North,11,0.0,-999.0,69,0.00,,,0.00,0,Wunderground v.1.15,2013-04-25 09:11:00,
2013-04-25 05:16:00,53.6,43.7,30.12,NNE,26,0.0,-999.0,69,0.00,,,0.00,0,Wunderground v.1.15,2013-04-25 09:16:00,
2013-04-25 05:21:00,53.2,43.3,30.13,ENE,63,0.0,-999.0,69,0.00,,,0.00,0,Wunderground v.1.15,2013-04-25 09:21:00,
2013-04-25 05:27:00,52.8,42.9,30.13,East,81,0.0,-999.0,69,0.00,,,0.00,0,Wunderground v.1.15,2013-04-25 09:27:00,
2013-04-25 05:32:00,52.4,42.1,30.13,East,80,0.0,-999.0,68,0.00,,,0.00,0,Wunderground v.1.15,2013-04-25 09:32:00,
2013-04-25 05:38:00,51.8,41.6,30.13,NNE,24,0.0,-999.0,68,0.00,,,0.00,0,Wunderground v.1.15,2013-04-25 09:38:00,
2013-04-25 05:44:00,51.3,40.7,30.13,ENE,62,0.0,-999.0,67,0.00,,,0.00,0,Wunderground v.1.15,2013-04-25 09:44:00,
2013-04-25 05:49:00,51.0,40.4,30.14,NNE,19,0.0,-999.0,67,0.00,,,0.00,0,Wunderground v.1.15,2013-04-25 09:49:00,
2013-04-25 05:54:00,50.5,39.6,30.14,East,92,0.0,-999.0,66,0.00,,,0.00,0,Wunderground v.1.15,2013-04-25 09:54:00,
2013-04-25 06:00:00,50.1,39.2,30.15,East,89,0.0,-999.0,66,0.00,,,0.00,0,Wunderground v.1.15,2013-04-25 10:00:00,
2013-04-25 06:05:00,49.9,39.0,30.15,North,355,0.0,-999.0,66,0.00,,,0.00,0,Wunderground v.1.15,2013-04-25 10:05:00,
2013-04-25 06:10:00,49.7,38.8,30.15,North,355,0.0,-999.0,66,0.00,,,0.00,0,Wunderground v.1.15,2013-04-25 10:10:00,
2013-04-25 06:16:00,49.5,38.6,30.16,NNW,346,0.0,-999.0,66,0.00,,,0.00,0,Wunderground v.1.15,2013-04-25 10:16:00,
2013-04-25 06:21:00,49.4,38.5,30.16,NNW,348,0.0,-999.0,66,0.00,,,0.00,0,Wunderground v.1.15,2013-04-25 10:21:00,
2013-04-25 06:26:00,49.3,38.8,30.16,NNW,329,0.0,-999.0,67,0.00,,,0.00,0,Wunderground v.1.15,2013-04-25 10:26:00,
2013-04-25 06:32:00,49.2,38.7,30.17,NE,34,0.0,-999.0,67,0.00,,,0.00,0,Wunderground v.1.15,2013-04-25 10:32:00,
2013-04-25 06:37:00,49.0,38.1,30.17,North,355,0.0,-999.0,66,0.00,,,0.00,0,Wunderground v.1.15,2013-04-25 10:37:00,
2013-04-25 06:42:00,48.8,37.9,30.17,ENE,57,1.0,-999.0,66,0.00,,,0.00,5,Wunderground v.1.15,2013-04-25 10:42:00,
2013-04-25 06:48:00,48.6,37.7,30.18,ESE,108,1.0,-999.0,66,0.00,,,0.00,9,Wunderground v.1.15,2013-04-25 10:48:00,
2013-04-25 06:54:00,48.4,37.6,30.18,ENE,61,0.0,-999.0,66,0.00,,,0.00,16,Wunderground v.1.15,2013-04-25 10:54:00,
2013-04-25 06:59:00,48.3,37.5,30.19,ENE,78,0.0,-999.0,66,0.00,,,0.00,19,Wunderground v.1.15,2013-04-25 10:59:00,
2013-04-25 07:04:00,48.1,36.9,30.19,SSW,193,0.0,-999.0,65,0.00,,,0.00,28,Wunderground v.1.15,2013-04-25 11:04:00,
2013-04-25 07:10:00,47.9,36.3,30.19,ENE,76,0.0,-999.0,64,0.00,,,0.00,40,Wunderground v.1.15,2013-04-25 11:10:00,
2013-04-25 07:15:00,47.9,36.3,30.20,ENE,74,0.0,-999.0,64,0.00,,,0.00,42,Wunderground v.1.15,2013-04-25 11:15:00,
2013-04-25 07:20:00,47.8,36.2,30.20,SE,140,0.0,-999.0,64,0.00,,,0.00,46,Wunderground v.1.15,2013-04-25 11:20:00,
2013-04-25 07:26:00,47.8,35.8,30.20,NE,38,1.0,-999.0,63,0.00,,,0.00,63,Wunderground v.1.15,2013-04-25 11:26:00,
2013-04-25 07:31:00,47.8,35.8,30.21,NE,36,1.0,-999.0,63,0.00,,,0.00,53,Wunderground v.1.15,2013-04-25 11:31:00,
2013-04-25 07:36:00,47.8,35.8,30.21,NE,35,0.0,-999.0,63,0.00,,,0.00,40,Wunderground v.1.15,2013-04-25 11:36:00,
2013-04-25 07:41:00,47.7,35.7,30.20,NE,53,0.0,-999.0,63,0.00,,,0.00,84,Wunderground v.1.15,2013-04-25 11:41:00,
2013-04-25 07:47:00,47.6,36.0,30.20,East,92,0.0,-999.0,64,0.00,,,0.00,67,Wunderground v.1.15,2013-04-25 11:47:00,
2013-04-25 07:52:00,47.6,36.0,30.21,NNE,18,0.0,-999.0,64,0.00,,,0.00,77,Wunderground v.1.15,2013-04-25 11:52:00,
2013-04-25 07:57:00,47.6,36.0,30.21,NE,35,0.0,-999.0,64,0.00,,,0.00,225,Wunderground v.1.15,2013-04-25 11:57:00,
2013-04-25 08:03:00,47.8,36.2,30.21,SSE,153,0.0,-999.0,64,0.00,,,0.00,336,Wunderground v.1.15,2013-04-25 12:03:00,
2013-04-25 08:08:00,48.1,36.1,30.22,East,86,0.0,-999.0,63,0.00,,,0.00,357,Wunderground v.1.15,2013-04-25 12:08:00,
2013-04-25 08:13:00,48.3,36.3,30.22,WSW,250,0.0,-999.0,63,0.00,,,0.00,378,Wunderground v.1.15,2013-04-25 12:13:00,
2013-04-25 08:18:00,48.5,36.5,30.22,NE,55,1.0,-999.0,63,0.00,,,0.00,401,Wunderground v.1.15,2013-04-25 12:18:00,
2013-04-25 08:24:00,48.7,36.7,30.22,ENE,69,1.0,-999.0,63,0.00,,,0.00,424,Wunderground v.1.15,2013-04-25 12:24:00,
2013-04-25 08:29:00,48.9,36.4,30.22,NW,312,0.0,-999.0,62,0.00,,,0.00,446,Wunderground v.1.15,2013-04-25 12:29:00,
2013-04-25 08:35:00,49.2,37.1,30.22,NE,51,0.0,-999.0,63,0.00,,,0.00,473,Wunderground v.1.15,2013-04-25 12:35:00,
2013-04-25 08:41:00,49.7,36.8,30.22,East,93,0.0,-999.0,61,0.00,,,0.00,490,Wunderground v.1.15,2013-04-25 12:41:00,
2013-04-25 08:46:00,49.2,36.3,30.22,North,5,1.0,-999.0,61,0.00,,,0.00,257,Wunderground v.1.15,2013-04-25 12:46:00,
2013-04-25 08:51:00,49.3,36.8,30.22,ENE,69,0.0,-999.0,62,0.00,,,0.00,420,Wunderground v.1.15,2013-04-25 12:51:00,
2013-04-25 08:56:00,49.6,36.7,30.22,NNE,28,0.0,-999.0,61,0.00,,,0.00,132,Wunderground v.1.15,2013-04-25 12:56:00,
2013-04-25 09:02:00,49.8,37.3,30.22,NNE,13,0.0,-999.0,62,0.00,,,0.00,100,Wunderground v.1.15,2013-04-25 13:02:00,
2013-04-25 09:07:00,49.8,37.3,30.22,North,360,0.0,-999.0,62,0.00,,,0.00,155,Wunderground v.1.15,2013-04-25 13:07:00,
2013-04-25 09:12:00,49.9,37.0,30.22,East,90,1.0,-999.0,61,0.00,,,0.00,149,Wunderground v.1.15,2013-04-25 13:12:00,
2013-04-25 09:17:00,49.9,37.4,30.22,WNW,296,1.0,-999.0,62,0.00,,,0.00,594,Wunderground v.1.15,2013-04-25 13:17:00,
2013-04-25 09:23:00,50.0,37.1,30.23,North,360,1.0,-999.0,61,0.00,,,0.00,612,Wunderground v.1.15,2013-04-25 13:23:00,
2013-04-25 09:28:00,50.4,37.4,30.23,NNE,18,0.0,-999.0,61,0.00,,,0.00,666,Wunderground v.1.15,2013-04-25 13:28:00,
2013-04-25 09:33:00,50.9,37.9,30.23,East,86,0.0,-999.0,61,0.00,,,0.00,555,Wunderground v.1.15,2013-04-25 13:33:00,
2013-04-25 09:39:00,51.5,38.1,30.23,NE,45,0.0,-999.0,60,0.00,,,0.00,675,Wunderground v.1.15,2013-04-25 13:39:00,
2013-04-25 09:44:00,51.8,38.3,30.22,ENE,61,0.0,-999.0,60,0.00,,,0.00,721,Wunderground v.1.15,2013-04-25 13:44:00,
2013-04-25 09:49:00,51.5,37.6,30.23,ESE,109,0.0,-999.0,59,0.00,,,0.00,738,Wunderground v.1.15,2013-04-25 13:49:00,
2013-04-25 09:54:00,51.4,37.5,30.22,NE,47,0.0,-999.0,59,0.00,,,0.00,756,Wunderground v.1.15,2013-04-25 13:54:00,
2013-04-25 10:00:00,51.7,38.3,30.23,North,355,0.0,-999.0,60,0.00,,,0.00,770,Wunderground v.1.15,2013-04-25 14:00:00,
2013-04-25 10:05:00,52.5,38.1,30.22,NW,316,0.0,-999.0,58,0.00,,,0.00,786,Wunderground v.1.15,2013-04-25 14:05:00,
2013-04-25 10:10:00,51.9,37.6,30.22,North,350,1.0,-999.0,58,0.00,,,0.00,800,Wunderground v.1.15,2013-04-25 14:10:00,
2013-04-25 10:15:00,52.1,37.3,30.22,ENE,68,1.0,-999.0,57,0.00,,,0.00,816,Wunderground v.1.15,2013-04-25 14:15:00,
2013-04-25 10:20:00,52.8,38.4,30.22,NNW,337,0.0,-999.0,58,0.00,,,0.00,812,Wunderground v.1.15,2013-04-25 14:20:00,
2013-04-25 10:26:00,53.7,38.4,30.22,North,5,0.0,-999.0,56,0.00,,,0.00,846,Wunderground v.1.15,2013-04-25 14:26:00,
2013-04-25 10:31:00,53.7,38.8,30.22,NE,55,0.0,-999.0,57,0.00,,,0.00,851,Wunderground v.1.15,2013-04-25 14:31:00,
2013-04-25 10:37:00,53.7,38.4,30.22,East,100,0.0,-999.0,56,0.00,,,0.00,854,Wunderground v.1.15,2013-04-25 14:37:00,
2013-04-25 10:42:00,53.9,38.6,30.22,ESE,104,0.0,-999.0,56,0.00,,,0.00,861,Wunderground v.1.15,2013-04-25 14:42:00,
2013-04-25 10:47:00,54.4,39.5,30.22,NNW,338,0.0,-999.0,57,0.00,,,0.00,907,Wunderground v.1.15,2013-04-25 14:47:00,
2013-04-25 10:53:00,55.2,40.7,30.22,NNE,30,0.0,-999.0,58,0.00,,,0.00,837,Wunderground v.1.15,2013-04-25 14:53:00,
2013-04-25 10:58:00,56.1,40.1,30.22,West,277,0.0,-999.0,55,0.00,,,0.00,867,Wunderground v.1.15,2013-04-25 14:58:00,
2013-04-25 11:03:00,55.5,39.1,30.22,North,9,1.0,-999.0,54,0.00,,,0.00,947,Wunderground v.1.15,2013-04-25 15:03:00,
2013-04-25 11:08:00,56.6,40.1,30.22,North,360,1.0,-999.0,54,0.00,,,0.00,925,Wunderground v.1.15,2013-04-25 15:08:00,
2013-04-25 11:14:00,56.5,40.0,30.22,NW,321,0.0,-999.0,54,0.00,,,0.00,914,Wunderground v.1.15,2013-04-25 15:14:00,
2013-04-25 11:19:00,58.4,42.3,30.22,North,360,0.0,-999.0,55,0.00,,,0.00,898,Wunderground v.1.15,2013-04-25 15:19:00,
2013-04-25 11:24:00,57.8,41.3,30.22,North,355,0.0,-999.0,54,0.00,,,0.00,884,Wunderground v.1.15,2013-04-25 15:24:00,
2013-04-25 11:30:00,57.9,40.4,30.22,ENE,78,0.0,-999.0,52,0.00,,,0.00,947,Wunderground v.1.15,2013-04-25 15:30:00,
2013-04-25 11:35:00,56.8,39.4,30.22,SSW,194,0.0,-999.0,52,0.00,,,0.00,835,Wunderground v.1.15,2013-04-25 15:35:00,
2013-04-25 11:40:00,58.3,40.7,30.22,SE,136,0.0,-999.0,52,0.00,,,0.00,969,Wunderground v.1.15,2013-04-25 15:40:00,
2013-04-25 11:45:00,57.7,40.2,30.22,WNW,298,0.0,-999.0,52,0.00,,,0.00,967,Wunderground v.1.15,2013-04-25 15:45:00,
2013-04-25 11:51:00,58.0,40.5,30.22,NE,38,1.0,-999.0,52,0.00,,,0.00,1007,Wunderground v.1.15,2013-04-25 15:51:00,
2013-04-25 11:56:00,60.1,41.9,30.23,SSW,203,0.0,-999.0,51,0.00,,,0.00,979,Wunderground v.1.15,2013-04-25 15:56:00,
2013-04-25 12:01:00,59.0,41.4,30.23,SE,124,0.0,-999.0,52,0.00,,,0.00,1011,Wunderground v.1.15,2013-04-25 16:01:00,
2013-04-25 12:07:00,60.3,41.6,30.23,West,267,0.0,-999.0,50,0.00,,,0.00,1018,Wunderground v.1.15,2013-04-25 16:07:00,
2013-04-25 12:12:00,60.1,40.9,30.23,West,267,0.0,-999.0,49,0.00,,,0.00,1016,Wunderground v.1.15,2013-04-25 16:12:00,
2013-04-25 12:17:00,59.0,40.4,30.23,North,360,1.0,-999.0,50,0.00,,,0.00,1020,Wunderground v.1.15,2013-04-25 16:17:00,
2013-04-25 12:23:00,58.7,40.1,30.23,NNW,331,2.0,-999.0,50,0.00,,,0.00,1021,Wunderground v.1.15,2013-04-25 16:23:00,
2013-04-25 12:29:00,59.4,40.7,30.22,West,275,3.0,-999.0,50,0.00,,,0.00,1023,Wunderground v.1.15,2013-04-25 16:29:00,
2013-04-25 12:34:00,60.2,41.5,30.23,WSW,256,2.0,-999.0,50,0.00,,,0.00,1023,Wunderground v.1.15,2013-04-25 16:34:00,
2013-04-25 12:39:00,60.3,41.0,30.22,NW,306,2.0,-999.0,49,0.00,,,0.00,1025,Wunderground v.1.15,2013-04-25 16:39:00,
2013-04-25 12:45:00,60.7,40.9,30.22,North,349,1.0,-999.0,48,0.00,,,0.00,1027,Wunderground v.1.15,2013-04-25 16:45:00,
2013-04-25 12:50:00,61.5,42.2,30.22,WNW,286,0.0,-999.0,49,0.00,,,0.00,1027,Wunderground v.1.15,2013-04-25 16:50:00,
2013-04-25 12:55:00,61.3,41.4,30.22,ESE,107,1.0,-999.0,48,0.00,,,0.00,1027,Wunderground v.1.15,2013-04-25 16:55:00,
2013-04-25 13:01:00,61.5,41.6,30.22,WNW,302,1.0,-999.0,48,0.00,,,0.00,1027,Wunderground v.1.15,2013-04-25 17:01:00,
2013-04-25 13:06:00,63.3,42.7,30.22,South,182,1.0,-999.0,47,0.00,,,0.00,1025,Wunderground v.1.15,2013-04-25 17:06:00,
2013-04-25 13:11:00,64.8,45.2,30.22,South,181,0.0,-999.0,49,0.00,,,0.00,1028,Wunderground v.1.15,2013-04-25 17:11:00,
2013-04-25 13:16:00,62.8,41.1,30.22,NW,321,1.0,-999.0,45,0.00,,,0.00,1025,Wunderground v.1.15,2013-04-25 17:16:00,
2013-04-25 13:22:00,63.4,41.1,30.21,NNE,15,1.0,-999.0,44,0.00,,,0.00,1021,Wunderground v.1.15,2013-04-25 17:22:00,
2013-04-25 13:27:00,62.8,41.7,30.21,West,275,2.0,-999.0,46,0.00,,,0.00,1018,Wunderground v.1.15,2013-04-25 17:27:00,
2013-04-25 13:32:00,63.1,41.4,30.22,NW,305,1.0,-999.0,45,0.00,,,0.00,1014,Wunderground v.1.15,2013-04-25 17:32:00,
2013-04-25 13:38:00,64.5,42.1,30.21,North,355,0.0,-999.0,44,0.00,,,0.00,1007,Wunderground v.1.15,2013-04-25 17:38:00,
2013-04-25 13:43:00,63.5,41.8,30.21,SE,144,1.0,-999.0,45,0.00,,,0.00,1004,Wunderground v.1.15,2013-04-25 17:43:00,
2013-04-25 13:49:00,63.7,42.5,30.21,SE,134,1.0,-999.0,46,0.00,,,0.00,1000,Wunderground v.1.15,2013-04-25 17:49:00,
2013-04-25 13:54:00,64.9,41.2,30.21,NNE,28,0.0,-999.0,42,0.00,,,0.00,991,Wunderground v.1.15,2013-04-25 17:54:00,
2013-04-25 13:59:00,66.4,43.2,30.21,North,355,0.0,-999.0,43,0.00,,,0.00,988,Wunderground v.1.15,2013-04-25 17:59:00,
2013-04-25 14:04:00,65.5,40.5,30.21,North,349,1.0,-999.0,40,0.00,,,0.00,984,Wunderground v.1.15,2013-04-25 18:04:00,
2013-04-25 14:10:00,64.7,40.4,30.21,WNW,284,1.0,-999.0,41,0.00,,,0.00,970,Wunderground v.1.15,2013-04-25 18:10:00,
2013-04-25 14:15:00,65.1,40.8,30.21,SW,232,1.0,-999.0,41,0.00,,,0.00,967,Wunderground v.1.15,2013-04-25 18:15:00,
2013-04-25 14:20:00,65.4,41.7,30.21,SSE,155,1.0,-999.0,42,0.00,,,0.00,956,Wunderground v.1.15,2013-04-25 18:20:00,
2013-04-25 14:26:00,66.7,41.6,30.20,NNW,345,0.0,-999.0,40,0.00,,,0.00,947,Wunderground v.1.15,2013-04-25 18:26:00,
2013-04-25 14:31:00,66.1,41.7,30.20,NW,323,0.0,-999.0,41,0.00,,,0.00,937,Wunderground v.1.15,2013-04-25 18:31:00,
2013-04-25 14:36:00,65.5,40.5,30.20,North,5,0.0,-999.0,40,0.00,,,0.00,926,Wunderground v.1.15,2013-04-25 18:36:00,
2013-04-25 14:41:00,65.6,40.0,30.20,WSW,248,1.0,-999.0,39,0.00,,,0.00,914,Wunderground v.1.15,2013-04-25 18:41:00,
2013-04-25 14:46:00,65.6,40.6,30.19,South,188,1.0,-999.0,40,0.00,,,0.00,902,Wunderground v.1.15,2013-04-25 18:46:00,
2013-04-25 14:52:00,66.0,40.3,30.19,South,171,0.0,-999.0,39,0.00,,,0.00,891,Wunderground v.1.15,2013-04-25 18:52:00,
2013-04-25 14:57:00,68.2,42.9,30.19,SW,234,0.0,-999.0,40,0.00,,,0.00,881,Wunderground v.1.15,2013-04-25 18:57:00,
2013-04-25 15:02:00,67.0,41.9,30.19,WNW,295,1.0,-999.0,40,0.00,,,0.00,868,Wunderground v.1.15,2013-04-25 19:02:00,
2013-04-25 15:07:00,68.4,41.8,30.19,NW,324,2.0,-999.0,38,0.00,,,0.00,856,Wunderground v.1.15,2013-04-25 19:07:00,
2013-04-25 15:13:00,68.2,42.3,30.19,NNW,338,0.0,-999.0,39,0.00,,,0.00,840,Wunderground v.1.15,2013-04-25 19:13:00,
2013-04-25 15:18:00,69.3,43.9,30.19,West,275,0.0,-999.0,40,0.00,,,0.00,823,Wunderground v.1.15,2013-04-25 19:18:00,
2013-04-25 15:23:00,68.7,43.4,30.19,NNE,29,1.0,-999.0,40,0.00,,,0.00,809,Wunderground v.1.15,2013-04-25 19:23:00,
2013-04-25 15:28:00,67.9,42.0,30.19,NNW,329,1.0,-999.0,39,0.00,,,0.00,793,Wunderground v.1.15,2013-04-25 19:28:00,
2013-04-25 15:34:00,68.8,43.5,30.19,NNW,339,1.0,-999.0,40,0.00,,,0.00,782,Wunderground v.1.15,2013-04-25 19:34:00,
2013-04-25 15:39:00,67.8,41.3,30.19,NNW,341,0.0,-999.0,38,0.00,,,0.00,766,Wunderground v.1.15,2013-04-25 19:39:00,
2013-04-25 15:44:00,68.7,42.7,30.18,NE,38,0.0,-999.0,39,0.00,,,0.00,749,Wunderground v.1.15,2013-04-25 19:44:00,
2013-04-25 15:50:00,67.7,41.8,30.18,North,355,0.0,-999.0,39,0.00,,,0.00,737,Wunderground v.1.15,2013-04-25 19:50:00,
2013-04-25 15:55:00,68.1,41.5,30.18,WNW,299,0.0,-999.0,38,0.00,,,0.00,721,Wunderground v.1.15,2013-04-25 19:55:00,
2013-04-25 16:00:00,68.5,40.5,30.18,WNW,299,0.0,-999.0,36,0.00,,,0.00,703,Wunderground v.1.15,2013-04-25 20:00:00,
2013-04-25 16:06:00,68.1,40.8,30.18,NW,326,0.0,-999.0,37,0.00,,,0.00,686,Wunderground v.1.15,2013-04-25 20:06:00,
2013-04-25 16:11:00,68.6,40.6,30.18,NNE,17,0.0,-999.0,36,0.00,,,0.00,670,Wunderground v.1.15,2013-04-25 20:11:00,
2013-04-25 16:16:00,68.3,38.8,30.17,NW,310,1.0,-999.0,34,0.00,,,0.00,659,Wunderground v.1.15,2013-04-25 20:16:00,
2013-04-25 16:22:00,68.9,40.8,30.18,NNE,22,1.0,-999.0,36,0.00,,,0.00,642,Wunderground v.1.15,2013-04-25 20:22:00,
2013-04-25 16:27:00,68.7,39.2,30.18,West,269,1.0,-999.0,34,0.00,,,0.00,621,Wunderground v.1.15,2013-04-25 20:27:00,
2013-04-25 16:32:00,69.0,40.2,30.17,West,269,1.0,-999.0,35,0.00,,,0.00,603,Wunderground v.1.15,2013-04-25 20:32:00,
2013-04-25 16:38:00,70.3,42.1,30.17,West,268,0.0,-999.0,36,0.00,,,0.00,582,Wunderground v.1.15,2013-04-25 20:38:00,
2013-04-25 16:43:00,70.4,44.3,30.17,NNE,24,0.0,-999.0,39,0.00,,,0.00,566,Wunderground v.1.15,2013-04-25 20:43:00,
2013-04-25 16:49:00,70.4,42.2,30.17,ESE,116,0.0,-999.0,36,0.00,,,0.00,543,Wunderground v.1.15,2013-04-25 20:49:00,
2013-04-25 16:54:00,70.2,40.5,30.16,ESE,116,0.0,-999.0,34,0.00,,,0.00,524,Wunderground v.1.15,2013-04-25 20:54:00,
2013-04-25 16:59:00,70.8,41.0,30.16,WSW,254,0.0,-999.0,34,0.00,,,0.00,508,Wunderground v.1.15,2013-04-25 20:59:00,
2013-04-25 17:05:00,69.7,36.0,30.16,WSW,247,2.0,-999.0,29,0.00,,,0.00,485,Wunderground v.1.15,2013-04-25 21:05:00,
2013-04-25 17:10:00,69.1,35.5,30.16,West,264,1.0,-999.0,29,0.00,,,0.00,466,Wunderground v.1.15,2013-04-25 21:10:00,
2013-04-25 17:15:00,69.0,37.1,30.16,West,264,0.0,-999.0,31,0.00,,,0.00,448,Wunderground v.1.15,2013-04-25 21:15:00,
2013-04-25 17:21:00,69.3,37.3,30.17,WNW,293,0.0,-999.0,31,0.00,,,0.00,427,Wunderground v.1.15,2013-04-25 21:21:00,
2013-04-25 17:26:00,69.5,37.5,30.16,WNW,293,0.0,-999.0,31,0.00,,,0.00,406,Wunderground v.1.15,2013-04-25 21:26:00,
2013-04-25 17:31:00,69.5,40.6,30.16,WNW,293,0.0,-999.0,35,0.00,,,0.00,388,Wunderground v.1.15,2013-04-25 21:31:00,
2013-04-25 17:36:00,69.9,38.7,30.16,WNW,293,0.0,-999.0,32,0.00,,,0.00,367,Wunderground v.1.15,2013-04-25 21:36:00,
2013-04-25 17:42:00,69.9,41.0,30.16,WNW,293,0.0,-999.0,35,0.00,,,0.00,345,Wunderground v.1.15,2013-04-25 21:42:00,
2013-04-25 17:47:00,70.4,39.9,30.16,West,260,0.0,-999.0,33,0.00,,,0.00,325,Wunderground v.1.15,2013-04-25 21:47:00,
2013-04-25 17:53:00,69.9,39.5,30.16,West,269,1.0,-999.0,33,0.00,,,0.00,306,Wunderground v.1.15,2013-04-25 21:53:00,
2013-04-25 17:58:00,69.8,38.6,30.16,SSW,198,0.0,-999.0,32,0.00,,,0.00,281,Wunderground v.1.15,2013-04-25 21:58:00,
2013-04-25 18:03:00,69.2,38.1,30.16,South,186,0.0,-999.0,32,0.00,,,0.00,258,Wunderground v.1.15,2013-04-25 22:03:00,
2013-04-25 18:08:00,69.3,40.5,30.16,South,186,0.0,-999.0,35,0.00,,,0.00,239,Wunderground v.1.15,2013-04-25 22:08:00,
2013-04-25 18:14:00,69.4,38.2,30.16,WSW,247,0.0,-999.0,32,0.00,,,0.00,211,Wunderground v.1.15,2013-04-25 22:14:00,
2013-04-25 18:19:00,69.7,37.7,30.16,WSW,247,0.0,-999.0,31,0.00,,,0.00,190,Wunderground v.1.15,2013-04-25 22:19:00,
2013-04-25 18:24:00,69.3,38.2,30.16,WSW,247,0.0,-999.0,32,0.00,,,0.00,165,Wunderground v.1.15,2013-04-25 22:24:00,
2013-04-25 18:30:00,70.1,39.6,30.16,WSW,247,0.0,-999.0,33,0.00,,,0.00,141,Wunderground v.1.15,2013-04-25 22:30:00,
2013-04-25 18:35:00,68.6,39.1,30.16,WSW,247,0.0,-999.0,34,0.00,,,0.00,120,Wunderground v.1.15,2013-04-25 22:35:00,
2013-04-25 18:40:00,69.7,41.5,30.16,WSW,247,0.0,-999.0,36,0.00,,,0.00,102,Wunderground v.1.15,2013-04-25 22:40:00,
2013-04-25 18:45:00,68.3,40.3,30.16,WSW,247,0.0,-999.0,36,0.00,,,0.00,88,Wunderground v.1.15,2013-04-25 22:45:00,
2013-04-25 18:51:00,68.0,40.7,30.16,WSW,247,0.0,-999.0,37,0.00,,,0.00,72,Wunderground v.1.15,2013-04-25 22:51:00,
2013-04-25 18:56:00,67.1,37.8,30.16,WSW,247,0.0,-999.0,34,0.00,,,0.00,62,Wunderground v.1.15,2013-04-25 22:56:00,
2013-04-25 19:02:00,66.6,40.2,30.17,WSW,247,0.0,-999.0,38,0.00,,,0.00,54,Wunderground v.1.15,2013-04-25 23:02:00,
2013-04-25 19:07:00,66.0,39.7,30.17,WSW,247,0.0,-999.0,38,0.00,,,0.00,51,Wunderground v.1.15,2013-04-25 23:07:00,
2013-04-25 19:12:00,65.8,39.5,30.17,WSW,247,0.0,-999.0,38,0.00,,,0.00,47,Wunderground v.1.15,2013-04-25 23:12:00,
2013-04-25 19:17:00,65.6,40.0,30.17,WSW,247,0.0,-999.0,39,0.00,,,0.00,42,Wunderground v.1.15,2013-04-25 23:17:00,
2013-04-25 19:23:00,65.5,41.2,30.17,WSW,247,0.0,-999.0,41,0.00,,,0.00,37,Wunderground v.1.15,2013-04-25 23:23:00,
2013-04-25 19:28:00,65.7,42.0,30.17,WSW,247,0.0,-999.0,42,0.00,,,0.00,33,Wunderground v.1.15,2013-04-25 23:28:00,
2013-04-25 19:33:00,66.0,42.9,30.17,WSW,247,0.0,-999.0,43,0.00,,,0.00,28,Wunderground v.1.15,2013-04-25 23:33:00,
2013-04-25 19:38:00,66.0,42.2,30.17,WSW,247,0.0,-999.0,42,0.00,,,0.00,23,Wunderground v.1.15,2013-04-25 23:38:00,
2013-04-25 19:43:00,65.9,42.8,30.17,WSW,247,0.0,-999.0,43,0.00,,,0.00,19,Wunderground v.1.15,2013-04-25 23:43:00,
2013-04-25 19:49:00,65.2,43.3,30.18,WSW,247,0.0,-999.0,45,0.00,,,0.00,14,Wunderground v.1.15,2013-04-25 23:49:00,
2013-04-25 19:54:00,64.4,43.7,30.18,WSW,247,0.0,-999.0,47,0.00,,,0.00,9,Wunderground v.1.15,2013-04-25 23:54:00,
2013-04-25 19:59:00,63.6,44.1,30.18,WSW,247,0.0,-999.0,49,0.00,,,0.00,5,Wunderground v.1.15,2013-04-25 23:59:00,
2013-04-25 20:05:00,63.0,44.1,30.18,WSW,247,0.0,-999.0,50,0.00,,,0.00,0,Wunderground v.1.15,2013-04-26 00:05:00,
2013-04-25 20:10:00,62.2,43.3,30.18,WSW,247,0.0,-999.0,50,0.00,,,0.00,0,Wunderground v.1.15,2013-04-26 00:10:00,
2013-04-25 20:15:00,61.8,42.4,30.19,WSW,247,0.0,-999.0,49,0.00,,,0.00,0,Wunderground v.1.15,2013-04-26 00:15:00,
2013-04-25 20:20:00,61.1,42.8,30.19,WSW,247,0.0,-999.0,51,0.00,,,0.00,0,Wunderground v.1.15,2013-04-26 00:20:00,
2013-04-25 20:26:00,60.2,42.5,30.19,WSW,247,0.0,-999.0,52,0.00,,,0.00,0,Wunderground v.1.15,2013-04-26 00:26:00,
2013-04-25 20:31:00,59.6,41.9,30.19,WSW,247,0.0,-999.0,52,0.00,,,0.00,0,Wunderground v.1.15,2013-04-26 00:31:00,
2013-04-25 20:36:00,59.0,42.8,30.19,WSW,247,0.0,-999.0,55,0.00,,,0.00,0,Wunderground v.1.15,2013-04-26 00:36:00,
2013-04-25 20:41:00,58.3,42.2,30.20,WSW,247,0.0,-999.0,55,0.00,,,0.00,0,Wunderground v.1.15,2013-04-26 00:41:00,
2013-04-25 20:47:00,57.6,42.0,30.20,WSW,247,0.0,-999.0,56,0.00,,,0.00,0,Wunderground v.1.15,2013-04-26 00:47:00,
2013-04-25 20:52:00,57.1,42.0,30.20,WSW,247,0.0,-999.0,57,0.00,,,0.00,0,Wunderground v.1.15,2013-04-26 00:52:00,
2013-04-25 20:57:00,56.7,41.6,30.21,WSW,247,0.0,-999.0,57,0.00,,,0.00,0,Wunderground v.1.15,2013-04-26 00:57:00,
2013-04-25 21:03:00,56.2,42.5,30.21,WSW,247,0.0,-999.0,60,0.00,,,0.00,0,Wunderground v.1.15,2013-04-26 01:03:00,
2013-04-25 21:08:00,55.8,42.1,30.21,WSW,247,0.0,-999.0,60,0.00,,,0.00,0,Wunderground v.1.15,2013-04-26 01:08:00,
2013-04-25 21:13:00,55.5,41.8,30.22,WSW,247,0.0,-999.0,60,0.00,,,0.00,0,Wunderground v.1.15,2013-04-26 01:13:00,
2013-04-25 21:19:00,55.0,42.2,30.22,WSW,247,0.0,-999.0,62,0.00,,,0.00,0,Wunderground v.1.15,2013-04-26 01:19:00,
2013-04-25 21:24:00,54.6,42.3,30.22,WSW,247,0.0,-999.0,63,0.00,,,0.00,0,Wunderground v.1.15,2013-04-26 01:24:00,
2013-04-25 21:30:00,54.3,42.4,30.22,WSW,247,0.0,-999.0,64,0.00,,,0.00,0,Wunderground v.1.15,2013-04-26 01:30:00,
2013-04-25 21:35:00,53.8,43.1,30.23,WSW,247,0.0,-999.0,67,0.00,,,0.00,0,Wunderground v.1.15,2013-04-26 01:35:00,
2013-04-25 21:40:00,53.3,42.6,30.23,WSW,247,0.0,-999.0,67,0.00,,,0.00,0,Wunderground v.1.15,2013-04-26 01:40:00,
2013-04-25 21:46:00,52.9,43.0,30.23,WSW,247,0.0,-999.0,69,0.00,,,0.00,0,Wunderground v.1.15,2013-04-26 01:46:00,
2013-04-25 21:51:00,52.6,43.1,30.24,WSW,247,0.0,-999.0,70,0.00,,,0.00,0,Wunderground v.1.15,2013-04-26 01:51:00,
2013-04-25 21:56:00,52.0,43.3,30.24,WSW,247,0.0,-999.0,72,0.00,,,0.00,0,Wunderground v.1.15,2013-04-26 01:56:00,
2013-04-25 22:02:00,51.6,43.2,30.25,WSW,247,0.0,-999.0,73,0.00,,,0.00,0,Wunderground v.1.15,2013-04-26 02:02:00,
2013-04-25 22:07:00,51.4,42.7,30.25,WSW,247,0.0,-999.0,72,0.00,,,0.00,0,Wunderground v.1.15,2013-04-26 02:07:00,
2013-04-25 22:12:00,51.2,42.5,30.25,WSW,247,0.0,-999.0,72,0.00,,,0.00,0,Wunderground v.1.15,2013-04-26 02:12:00,
2013-04-25 22:18:00,51.0,42.3,30.25,WSW,247,0.0,-999.0,72,0.00,,,0.00,0,Wunderground v.1.15,2013-04-26 02:18:00,
2013-04-25 22:24:00,50.9,42.2,30.25,WSW,247,0.0,-999.0,72,0.00,,,0.00,0,Wunderground v.1.15,2013-04-26 02:24:00,
2013-04-25 22:29:00,50.7,42.0,30.25,WSW,247,0.0,-999.0,72,0.00,,,0.00,0,Wunderground v.1.15,2013-04-26 02:29:00,
2013-04-25 22:34:00,50.6,41.9,30.25,WSW,247,0.0,-999.0,72,0.00,,,0.00,0,Wunderground v.1.15,2013-04-26 02:34:00,
2013-04-25 22:40:00,50.4,41.7,30.26,WSW,247,0.0,-999.0,72,0.00,,,0.00,0,Wunderground v.1.15,2013-04-26 02:40:00,
2013-04-25 22:45:00,50.1,41.4,30.26,WSW,247,0.0,-999.0,72,0.00,,,0.00,0,Wunderground v.1.15,2013-04-26 02:45:00,
2013-04-25 22:51:00,49.9,41.6,30.26,WSW,247,0.0,-999.0,73,0.00,,,0.00,0,Wunderground v.1.15,2013-04-26 02:51:00,
2013-04-25 22:56:00,49.6,41.7,30.26,WSW,247,0.0,-999.0,74,0.00,,,0.00,0,Wunderground v.1.15,2013-04-26 02:56:00,
2013-04-25 23:01:00,49.4,41.5,30.26,WSW,247,0.0,-999.0,74,0.00,,,0.00,0,Wunderground v.1.15,2013-04-26 03:01:00,
2013-04-25 23:07:00,49.1,41.5,30.26,WSW,247,0.0,-999.0,75,0.00,,,0.00,0,Wunderground v.1.15,2013-04-26 03:07:00,
2013-04-25 23:12:00,48.8,41.2,30.26,NW,307,0.0,-999.0,75,0.00,,,0.00,0,Wunderground v.1.15,2013-04-26 03:12:00,
2013-04-25 23:17:00,48.7,41.1,30.26,NW,307,0.0,-999.0,75,0.00,,,0.00,0,Wunderground v.1.15,2013-04-26 03:17:00,
2013-04-25 23:23:00,48.5,40.9,30.26,NW,307,0.0,-999.0,75,0.00,,,0.00,0,Wunderground v.1.15,2013-04-26 03:23:00,
2013-04-25 23:28:00,48.5,40.9,30.26,NW,307,0.0,-999.0,75,0.00,,,0.00,0,Wunderground v.1.15,2013-04-26 03:28:00,
2013-04-25 23:33:00,48.3,40.4,30.26,NW,307,0.0,-999.0,74,0.00,,,0.00,0,Wunderground v.1.15,2013-04-26 03:33:00,
2013-04-25 23:39:00,48.2,40.6,30.26,NW,307,0.0,-999.0,75,0.00,,,0.00,0,Wunderground v.1.15,2013-04-26 03:39:00,
2013-04-25 23:44:00,48.1,40.5,30.26,NW,307,0.0,-999.0,75,0.00,,,0.00,0,Wunderground v.1.15,2013-04-26 03:44:00,
2013-04-25 23:49:00,47.9,40.4,30.26,NW,307,0.0,-999.0,75,0.00,,,0.00,0,Wunderground v.1.15,2013-04-26 03:49:00,
2013-04-25 23:54:00,47.7,40.5,30.26,NW,307,0.0,-999.0,76,0.00,,,0.00,0,Wunderground v.1.15,2013-04-26 03:54:00,